Pittsfield, IL

11:42 PM CDT on August 28, 2016 (GMT -0500)
Pittsfield Penstone Municipal

Weather History for KPPQ - January, 2014

Change the Weather History Date:

Saturday, January 18, 2014

  Actual Average (KUIN) Record (KUIN)
Temperature  
Mean Temperature 26 °F 26 °F  
Max Temperature 39 °F 34 °F 64 °F (1951)
Min Temperature 12 °F 18 °F -16 °F (1930)
Degree Days  
Heating Degree Days 40 39  
Month to date heating degree days 698  
Since 1 July heating degree days 2889  
Cooling Degree Days 0 0  
Month to date cooling degree days 0  
Year to date cooling degree days 0  
Moisture  
Dew Point 21 °F    
Average Humidity 78    
Maximum Humidity 92    
Minimum Humidity 53    
Precipitation  
Precipitation 0.02 in 0.05 in 1.10 in (1996)
Month to date precipitation 0.91  
Year to date precipitation 0.91  
Sea Level Pressure  
Sea Level Pressure 29.81 in    
Wind  
Wind Speed 8 mph (SW)    
Max Wind Speed 25 mph    
Max Gust Speed 30 mph    
Visibility 10 miles    
Events Rain , Snow    
T = Trace of Precipitation, MM = Missing Value Source: NWS Daily Summary

Daily Weather History Graph

Daily Weather History Graph

Search for Another Location

Airport or City:

Trip Planner

Search our weather history database for the weather conditions in past years. The results will help you decide how hot, cold, wet, or windy it might be!

Date:

Astronomy

Jan. 18, 2014 Rise Set
Actual Time 7:20 AM CST 5:06 PM CST
Civil Twilight 6:51 AM CST 5:36 PM CST
Nautical Twilight 6:18 AM CST 6:09 PM CST
Astronomical Twilight 5:46 AM CST 6:41 PM CST
Moon 7:48 PM CST (1/18) 8:21 AM CST (1/18)
Length of Visible Light 10h 44m
Length of Day
9h 45m
Waning Gibbous, 94% of the Moon is Illuminated
Jan 18
Waning Gibbous
Jan 23
Last Quarter
Jan 30
New
Feb 6
First Quarter
Feb 14
Full

Hourly Weather History & Observations

Time (CST) Temp. Windchill Dew Point Humidity Pressure Visibility Wind Dir Wind Speed Gust Speed Precip Events Conditions
12:15 AM 14.9 °F - 9.9 °F 80% 30.04 in 10.0 mi Calm Calm - N/A   Clear
12:35 AM 14.4 °F - 9.5 °F 81% 30.03 in 10.0 mi Calm Calm - N/A   Clear
12:55 AM 13.1 °F - 9.1 °F 84% 30.02 in 10.0 mi Calm Calm - N/A   Clear
1:15 AM 12.2 °F 6.1 °F 8.4 °F 85% 30.01 in 10.0 mi South 3.5 mph - N/A   Clear
1:35 AM 12.9 °F - 9.7 °F 87% 30.00 in 10.0 mi Calm Calm - N/A   Clear
1:55 AM 13.8 °F - 9.9 °F 84% 30.00 in 10.0 mi Calm Calm - N/A   Clear
2:15 AM 13.8 °F - 9.5 °F 83% 29.99 in 10.0 mi Calm Calm - N/A   Clear
2:35 AM 13.1 °F 5.4 °F 9.3 °F 85% 29.99 in 10.0 mi South 4.6 mph - N/A   Clear
2:55 AM 13.1 °F 4.0 °F 9.3 °F 85% 29.98 in 10.0 mi South 5.8 mph - N/A   Clear
3:15 AM 13.6 °F 3.5 °F 9.7 °F 84% 29.96 in 10.0 mi SSE 6.9 mph - N/A   Clear
3:35 AM 14.7 °F 5.9 °F 10.2 °F 82% 29.95 in 10.0 mi SSE 5.8 mph - N/A   Scattered Clouds
3:55 AM 16.0 °F 5.3 °F 11.1 °F 81% 29.95 in 10.0 mi South 8.1 mph - N/A   Mostly Cloudy
4:15 AM 17.2 °F 6.0 °F 11.5 °F 78% 29.93 in 10.0 mi South 9.2 mph - N/A   Overcast
4:35 AM 17.8 °F 7.5 °F 11.8 °F 78% 29.92 in 10.0 mi South 8.1 mph - N/A   Overcast
4:55 AM 18.5 °F 8.4 °F 12.2 °F 76% 29.91 in 10.0 mi South 8.1 mph - N/A   Overcast
5:15 AM 19.0 °F 9.0 °F 12.7 °F 76% 29.90 in 10.0 mi South 8.1 mph - N/A   Overcast
5:35 AM 19.4 °F 9.5 °F 13.5 °F 78% 29.87 in 10.0 mi SSE 8.1 mph - N/A   Overcast
5:55 AM 20.3 °F 9.8 °F 13.8 °F 76% 29.86 in 10.0 mi SSE 9.2 mph - N/A   Overcast
6:15 AM 21.6 °F 10.6 °F 13.6 °F 72% 29.85 in 10.0 mi SSE 10.4 mph - N/A   Overcast
6:35 AM 22.5 °F 11.1 °F 13.8 °F 69% 29.81 in 10.0 mi SSE 11.5 mph - N/A   Mostly Cloudy
6:55 AM 23.5 °F 11.8 °F 13.8 °F 66% 29.79 in 10.0 mi SE 12.7 mph - N/A   Mostly Cloudy
7:15 AM 23.4 °F 11.1 °F 14.0 °F 67% 29.76 in 10.0 mi SE 13.8 mph - N/A   Overcast
7:35 AM 23.5 °F 10.3 °F 13.8 °F 66% 29.73 in 10.0 mi SE 16.1 mph - N/A   Mostly Cloudy
7:55 AM 24.1 °F 11.5 °F 13.5 °F 64% 29.70 in 10.0 mi SSE 15.0 mph 20.7 mph N/A   Scattered Clouds
8:15 AM 25.3 °F 12.6 °F 13.5 °F 61% 29.69 in 10.0 mi SSE 16.1 mph 19.6 mph N/A   Scattered Clouds
8:35 AM 26.2 °F 14.7 °F 14.0 °F 60% 29.70 in 10.0 mi South 13.8 mph 20.7 mph N/A   Scattered Clouds
8:55 AM 26.4 °F 16.6 °F 14.4 °F 60% 29.69 in 10.0 mi SSE 10.4 mph - N/A   Mostly Cloudy
9:15 AM 27.5 °F 18.6 °F 15.3 °F 60% 29.69 in 10.0 mi South 9.2 mph - N/A   Scattered Clouds
9:35 AM 30.0 °F 19.5 °F 14.5 °F 53% 29.68 in 10.0 mi South 13.8 mph 19.6 mph N/A   Scattered Clouds
9:55 AM 29.7 °F 18.6 °F 15.1 °F 55% 29.68 in 10.0 mi South 15.0 mph - N/A   Mostly Cloudy
10:15 AM 29.7 °F 20.7 °F 16.2 °F 57% 29.68 in 10.0 mi South 10.4 mph 17.3 mph N/A   Overcast
10:35 AM 29.8 °F 21.5 °F 16.9 °F 59% 29.68 in 10.0 mi SSW 9.2 mph - N/A   Overcast
10:55 AM 29.3 °F 20.8 °F 19.6 °F 67% 29.67 in 3.0 mi SSW 9.2 mph - N/A Snow Light Snow
11:15 AM 30.2 °F 22.6 °F 23.4 °F 76% 29.66 in 3.0 mi SSW 8.1 mph - N/A Snow Light Snow
11:35 AM 31.3 °F 23.9 °F 25.5 °F 79% 29.65 in 7.0 mi SW 8.1 mph - N/A   Overcast
11:55 AM 32.4 °F 24.6 °F 27.1 °F 81% 29.63 in 10.0 mi SW 9.2 mph - N/A   Overcast
12:15 PM 32.9 °F 24.7 °F 27.9 °F 82% 29.63 in 10.0 mi WSW 10.4 mph - N/A   Overcast
12:35 PM 33.8 °F 25.8 °F 28.2 °F 80% 29.62 in 10.0 mi SW 10.4 mph 17.3 mph N/A   Overcast
12:55 PM 35.1 °F 26.4 °F 29.3 °F 80% 29.61 in 10.0 mi SW 12.7 mph 18.4 mph N/A   Overcast
1:15 PM 36.5 °F 29.7 °F 30.2 °F 78% 29.61 in 10.0 mi SW 9.2 mph - N/A   Overcast
1:35 PM 37.6 °F 31.0 °F 30.6 °F 76% 29.61 in 10.0 mi WSW 9.2 mph - N/A   Overcast
1:55 PM 37.6 °F 30.5 °F 30.2 °F 75% 29.62 in 10.0 mi SW 10.4 mph - N/A   Overcast
2:15 PM 37.6 °F 33.1 °F 30.7 °F 76% 29.62 in 10.0 mi WSW 5.8 mph - N/A Rain Light Rain
2:35 PM 37.8 °F 32.5 °F 31.1 °F 77% 29.63 in 10.0 mi SW 6.9 mph - N/A   Overcast
2:55 PM 38.3 °F 31.9 °F 31.3 °F 76% 29.63 in 10.0 mi SW 9.2 mph - N/A   Overcast
3:15 PM 39.6 °F 33.5 °F 32.5 °F 76% 29.64 in 10.0 mi WSW 9.2 mph - N/A   Overcast
3:35 PM 38.5 °F 31.6 °F 32.9 °F 80% 29.66 in 10.0 mi WSW 10.4 mph - N/A Rain Rain
3:55 PM 37.2 °F 30.0 °F 33.6 °F 87% 29.67 in 5.0 mi West 10.4 mph 17.3 mph 0.01 in Rain Rain
4:15 PM 36.5 °F 31.0 °F 33.8 °F 90% 29.68 in 10.0 mi West 6.9 mph - 0.01 in Rain Light Rain
4:35 PM 36.1 °F 32.3 °F 33.8 °F 91% 29.69 in 10.0 mi West 4.6 mph - 0.01 in   Overcast
4:55 PM 36.0 °F 32.1 °F 33.8 °F 92% 29.71 in 10.0 mi West 4.6 mph - 0.01 in   Light Drizzle
5:15 PM 36.7 °F 30.5 °F 34.2 °F 91% 29.73 in 10.0 mi West 8.1 mph - N/A   Light Drizzle
5:35 PM 36.7 °F 26.9 °F 32.9 °F 86% 29.74 in 10.0 mi West 17.3 mph 25.3 mph N/A Rain Light Rain
5:55 PM 36.5 °F 26.7 °F 32.2 °F 84% 29.76 in 10.0 mi WNW 17.3 mph 25.3 mph N/A Rain Light Rain
6:15 PM 36.0 °F 26.0 °F 32.0 °F 86% 29.77 in 5.0 mi WNW 17.3 mph 25.3 mph N/A Rain Rain
6:35 PM 34.7 °F 24.7 °F 32.0 °F 90% 29.79 in 3.0 mi WNW 16.1 mph 23.0 mph N/A Rain Light Rain
6:55 PM 34.7 °F 25.9 °F 32.0 °F 90% 29.80 in 5.0 mi WNW 12.7 mph 21.9 mph N/A   Overcast
7:15 PM 33.3 °F 21.2 °F 30.9 °F 91% 29.83 in 10.0 mi NNW 21.9 mph 27.6 mph N/A   Overcast
7:35 PM 32.5 °F 20.8 °F 29.5 °F 88% 29.85 in 10.0 mi NW 19.6 mph 26.5 mph N/A   Overcast
7:55 PM 31.5 °F 17.9 °F 27.3 °F 85% 29.87 in 10.0 mi NNW 25.3 mph 29.9 mph N/A   Overcast
8:15 PM 29.8 °F 17.3 °F 25.7 °F 85% 29.88 in 10.0 mi NNW 19.6 mph 27.6 mph N/A   Overcast
8:35 PM 28.9 °F 15.1 °F 24.6 °F 84% 29.90 in 10.0 mi NNW 23.0 mph 28.8 mph N/A   Overcast
8:55 PM 28.4 °F 15.1 °F 24.3 °F 84% 29.92 in 10.0 mi NNW 20.7 mph 27.6 mph N/A   Overcast
9:15 PM 27.3 °F 13.6 °F 22.8 °F 83% 29.94 in 10.0 mi NW 20.7 mph 27.6 mph N/A   Overcast
9:35 PM 26.4 °F 13.2 °F 21.2 °F 81% 29.95 in 10.0 mi NNW 18.4 mph 26.5 mph N/A   Overcast
9:55 PM 25.7 °F 11.2 °F 20.5 °F 81% 29.96 in 10.0 mi NNW 21.9 mph 28.8 mph N/A   Overcast
10:15 PM 25.2 °F 9.5 °F 19.9 °F 81% 29.98 in 10.0 mi NNW 25.3 mph 28.8 mph N/A   Overcast
10:35 PM 24.6 °F 10.9 °F 19.2 °F 80% 29.99 in 10.0 mi NNW 18.4 mph 21.9 mph N/A   Overcast
10:55 PM 24.4 °F 13.0 °F 18.7 °F 79% 30.00 in 10.0 mi NW 12.7 mph 21.9 mph N/A   Overcast
11:15 PM 24.4 °F 13.0 °F 18.7 °F 79% 30.00 in 10.0 mi NW 12.7 mph 20.7 mph N/A   Overcast
11:35 PM 24.4 °F 15.6 °F 19.4 °F 81% 30.00 in 10.0 mi NW 8.1 mph - N/A   Overcast
11:55 PM 24.4 °F 13.0 °F 18.1 °F 77% 30.00 in 10.0 mi NW 12.7 mph 19.6 mph N/A   Overcast